Regional Weather Roundup
Issued by NWS

Home | Current Version | Previous Version | Text Only | Print | Product List | Glossary Off
Versions: 1 2 3 4 5 6 7 8 9 10 11 12 13 14 15 16 17 18 19 20 21 22 23 24 25 26 27 28 29 30 31 32 33 34 35 36 37 38 39 40 41 42 43 44 45 46 47 48 49 50

000
ASUS43 KLOT 221508
RWRIL

ILLINOIS REGIONAL WEATHER ROUNDUP
NATIONAL WEATHER SERVICE CHICAGO/ROMEOVILLE IL
1000 AM CDT TUE AUG 22 2017

NOTE: "FAIR" INDICATES FEW OR NO CLOUDS BELOW 12,000 FEET WITH NO
SIGNIFICANT WEATHER AND/OR OBSTRUCTIONS TO VISIBILITY.

* THESE STATIONS ARE NOT UNDER NWS QUALITY CONTROL. THEY ALSO MAY NOT
  REPORT WEATHER SUCH AS PRECIPITATION OR FOG.

ILZ001-002-007-009-015-016-024-221600-
NORTHWEST ILLINOIS

CITY           SKY/WX    TMP DP  RH WIND       PRES   REMARKS
MOLINE         CLOUDY    70  62  76 NW13      29.96R
STERLING*      CLOUDY    68  63  84 NW14      29.94R
SAVANNA*         N/A    N/A N/A N/A MISG        N/A
$$

ILZ003-004-008-010-011-017-018-221600-
NORTH CENTRAL ILLINOIS

CITY           SKY/WX    TMP DP  RH WIND       PRES   REMARKS
ROCKFORD       CLOUDY    69  62  78 W10       29.93R
FREEPORT*      CLOUDY    68  62  82 NW8       29.95R
ROCHELLE*      CLOUDY    68  64  88 W12       29.93R
DE KALB*       CLOUDY    69  65  86 NW13      29.91S
PERU*          CLOUDY    69  64  83 W14       29.92S
$$

ILZ005-006-012>014-019>023-221600-
NORTHEAST ILLINOIS

CITY           SKY/WX    TMP DP  RH WIND       PRES   REMARKS
CHICAGO-OHARE  CLOUDY    74  64  71 W16       29.86S
CHICAGO-MIDWAY CLOUDY    73  67  81 W9        29.87S
AURORA         CLOUDY    71  67  87 W16       29.90S
LANSING*       CLOUDY    72  65  78 W12       29.88S
JOLIET*        CLOUDY    73  69  85 W7        29.89S
WAUKEGAN       CLOUDY    70  64  81 VRB7      29.86R
DUPAGE AIRPORT CLOUDY    71  67  87 W13       29.88S
KANKAKEE*      PTSUNNY   71  69  96 W8        29.90S
WHEELING       CLOUDY    73  65  75 W9        29.88S
MORRIS*        CLOUDY    72  67  85 NW14      29.89R
ROMEOVILLE*    CLOUDY    72  66  81 W12       29.89S
NORTHERLY ISL    N/A     73  65  75 W8          N/A
$$

LMZ740>746-221600-
SOUTHERN LAKE MICHIGAN

STATION/POSITION SKY/WX   TEMP    WIND        PRES    VSBY  WAVE
                          AIR SEA DIR/SP/G                  HT/PER
                          (F)     (DEG/KT/KT) (MB)    (MI)  (FT/S)
SOUTHERN BUOY              71 71  290/ 19/ 21 1009.7          3/ 5
WILMETTE HARBOR            72 73  280/ 16/ 19   N/A           2/ 2
HARRISON CRIB              73     280/ 17/ 20   N/A
CALUMET HARBOR             72     240/  5/  8 1010.8F
BURNS HARBOR               72     240/ 14/ 17 1011.9F
MICHIGAN CITY              71     220/ 18/ 20   N/A
MICHIGAN CITY 6N           72 74  250/ 16/ 21   N/A           3/ 4
ST. JOSEPH                 72 73  260/ 17/ 21 1010.6          5/ 5
$$

ILZ025>027-034>036-040-047-049-050-058-095>099-221600-
WEST-CENTRAL ILLINOIS

CITY           SKY/WX    TMP DP  RH WIND       PRES   REMARKS
QUINCY         CLOUDY    70  66  87 NW15      30.00S
GALESBURG*     CLOUDY    69  65  87 NW8       29.98R
MACOMB*        CLOUDY    70  66  87 NW12G17   30.00S
JACKSONVILLE*  CLOUDY    70  67  92 W7        29.99R
PITTSFIELD*    CLOUDY    70  67  89 W7        30.02R
$$

ILZ028>032-037-038-041>044-048-051>054-059>061-221600-
CENTRAL ILLINOIS

CITY           SKY/WX    TMP DP  RH WIND       PRES   REMARKS
PONTIAC        CLOUDY    72  71  97 W9        29.93R
BLOOMINGTON    CLOUDY    70  67  90 W9        29.95S
DECATUR        PTSUNNY   72  69  90 W9        29.96R
PEORIA         CLOUDY    73  68  84 NW9       29.94S
LACON*         CLOUDY    72  67  83 W12       29.93R
LINCOLN*       CLOUDY    71  70  95 CALM      29.96R
SPRINGFIELD    CLOUDY    72  70  93 W6        29.98R
TAYLORVILLE    CLOUDY    70  69  98 W6        29.99R
$$

ILZ033-039-045-046-055>057-062-063-221600-
EAST-CENTRAL ILLINOIS

CITY           SKY/WX    TMP DP  RH WIND       PRES   REMARKS
CHAMPAIGN      CLOUDY    72  69  90 W12       29.95S
RANTOUL*       CLOUDY    73  70  92 W12       29.94S
MATTOON        LGT RAIN  72  72 100 S8        29.94R
PARIS*         PTSUNNY   74  71  92 S6        29.93F
$$

ILZ079-100>102-221600-
SOUTHWEST ILLINOIS

CITY           SKY/WX    TMP DP  RH WIND       PRES   REMARKS
ALTON          CLOUDY    70  70 100 CALM      30.00R
BELLEVILLE     CLOUDY    72  70  94 W3        30.00R
CAHOKIA*       CLOUDY    74  71  91 CALM      29.98R
SPARTA*        LGT RAIN  72  70  93 CALM      29.99F
$$

ILZ064>066-069>071-074>076-080>082-084>086-088>090-092>094-221600-
SOUTH-CENTRAL ILLINOIS

CITY           SKY/WX    TMP DP  RH WIND       PRES   REMARKS
CARBONDALE     CLOUDY    80  76  87 VRB5      29.98S HX  86
CAIRO*         CLOUDY    81  76  84 SW9       30.01R HX  88
EFFINGHAM*     LGT RAIN  72  72 100 S3        29.99R
MARION         PTSUNNY   82  77  83 W12       30.00R HX  91
MT. VERNON     LGT RAIN  75  72  90 S3        29.98F
CENTRALIA*     CLOUDY    74  73  95 SE7       29.95F
SALEM*         LGT RAIN  74  71  89 CALM      29.96F
METROPOLIS*    CLOUDY    83  76  79 SW8       30.02R HX  91
$$

ILZ067-068-072-073-078-083-087-091-221600-
SOUTHEAST ILLINOIS

CITY           SKY/WX    TMP DP  RH WIND       PRES   REMARKS
LAWRENCEVILLE  LGT RAIN  74  72  93 S9        29.97S
FLORA*         CLOUDY    74  71  90 S6        29.97F
FAIRFIELD*     CLOUDY    74  72  96 SE5       29.96F
HARRISBURG*    CLOUDY    83  76  78 W8        29.99S HX  91
ROBINSON*      CLOUDY    73  71  95 S5        29.98S
CARMI*         CLOUDY    75  72  89 NE6       29.99S
$$

ABBREVIATIONS USED IN REMARKS
   TC - TEMPERATURE IN CELSIUS
  WCI - WIND CHILL INDEX
   HX - HEAT INDEX
  VSB - VISIBILITY
$$





USA.gov is the U.S. government's official web portal to all federal, state and local government web resources and services.